Location: Caucaguita
(10.3578°N, 66.8025°W)
Time: 02:12:21
(UTC+00:00)

Yuri Rocket - Pass Details

Date: 18 November 2025
Orbit: 567 x 1898 km, 28.2° (Epoch: 08 December)

Event Time Altitude Azimuth Distance (km) Brightness Sun altitude
Rises 23:13:30 0° 239° (WSW) 3,515 8.4 -17.7°
Reaches altitude 10° 23:16:24 10° 238° (WSW) 2,381 7.2 -18.4°
Maximum altitude 23:21:48 78° 152° (SSE) 678 3.1 -19.6°
Enters shadow 23:23:04 47° 76° (ENE) 843 3.3 -19.9°
